Key West, FL

9:42 PM EST on January 22, 2018 (GMT -0500)
Key West International

Weather History for KEYW - May, 2014

Change the Weather History Date:

Sunday, May 25, 2014

  Actual Average Record
Temperature  
Mean Temperature 83 °F 82 °F  
Max Temperature 87 °F 86 °F 91 °F (1989)
Min Temperature 78 °F 77 °F 70 °F (1992)
Degree Days  
Heating Degree Days 0 0  
Month to date heating degree days 0 0  
Since 1 July heating degree days 22 73  
Cooling Degree Days 18 17  
Month to date cooling degree days 413 375  
Year to date cooling degree days 1507 1329  
Growing Degree Days 32 (Base 50)    
Moisture  
Dew Point 72 °F    
Average Humidity 69    
Maximum Humidity 79    
Minimum Humidity 59    
Precipitation  
Precipitation 0.00 in 0.12 in 3.34 in (1985)
Month to date precipitation 0.91 2.16  
Year to date precipitation 12.85 9.79  
Snow  
Snow 0.00 in - - ()
Month to date snowfall 0.0  
Since 1 July snowfall 0.0  
Snow Depth 0.00 in    
Sea Level Pressure  
Sea Level Pressure 30.07 in    
Wind  
Wind Speed 9 mph (ESE)    
Max Wind Speed 15 mph    
Max Gust Speed 21 mph    
Visibility 10 miles    
Events      
T = Trace of Precipitation, MM = Missing Value Source: NWS Daily Summary

Daily Weather History Graph

Daily Weather History Graph

Search for Another Location

Airport or City:

Trip Planner

Search our weather history database for the weather conditions in past years. The results will help you decide how hot, cold, wet, or windy it might be!

Date:

Astronomy

May. 25, 2014 Rise Set
Actual Time 6:39 AM EDT 8:08 PM EDT
Civil Twilight 6:14 AM EDT 8:33 PM EDT
Nautical Twilight 5:44 AM EDT 9:03 PM EDT
Astronomical Twilight 5:13 AM EDT 9:34 PM EDT
Moon 4:22 AM EDT (5/25) 5:25 PM EDT (5/25)
Length of Visible Light 14h 19m
Length of Day
13h 28m
Waning Crescent, 10% of the Moon is Illuminated
May 25
Waning Crescent
May 28
New
Jun 5
First Quarter
Jun 13
Full
Jun 19
Last Quarter

Hourly Weather History & Observations

Time (EDT) Temp. Heat Index Dew Point Humidity Pressure Visibility Wind Dir Wind Speed Gust Speed Precip Events Conditions
12:53 AM 80.1 °F 83.6 °F 71.1 °F 74% 30.06 in 10.0 mi ESE 6.9 mph - N/A   Partly Cloudy
1:53 AM 80.6 °F 84.6 °F 71.6 °F 74% 30.03 in 10.0 mi ESE 8.1 mph - N/A   Partly Cloudy
2:53 AM 80.1 °F 83.6 °F 71.1 °F 74% 30.03 in 10.0 mi SE 5.8 mph - N/A   Partly Cloudy
3:53 AM 79.0 °F - 71.1 °F 77% 30.04 in 10.0 mi SE 4.6 mph - N/A   Partly Cloudy
4:53 AM 78.1 °F - 71.1 °F 79% 30.04 in 10.0 mi SE 3.5 mph - N/A   Clear
5:25 AM 79.0 °F - 72.0 °F 79% 30.04 in 10.0 mi East 3.5 mph - N/A   Mostly Cloudy
5:53 AM 79.0 °F - 72.0 °F 79% 30.05 in 10.0 mi ENE 3.5 mph - N/A   Scattered Clouds
6:53 AM 79.0 °F - 71.1 °F 77% 30.06 in 10.0 mi ESE 4.6 mph - N/A   Clear
7:53 AM 80.6 °F 84.6 °F 71.6 °F 74% 30.07 in 10.0 mi East 6.9 mph - N/A   Clear
8:53 AM 82.0 °F 86.7 °F 72.0 °F 71% 30.09 in 10.0 mi East 5.8 mph - N/A   Clear
9:53 AM 82.9 °F 88.8 °F 73.0 °F 72% 30.09 in 10.0 mi ESE 6.9 mph - N/A   Clear
10:53 AM 84.2 °F 90.9 °F 73.4 °F 70% 30.10 in 10.0 mi ESE 8.1 mph - N/A   Clear
11:53 AM 84.9 °F 91.4 °F 73.0 °F 67% 30.10 in 10.0 mi ESE 6.9 mph - N/A   Clear
12:53 PM 84.9 °F 91.4 °F 73.0 °F 67% 30.09 in 10.0 mi ESE 11.5 mph - N/A   Clear
1:53 PM 86.0 °F 93.8 °F 73.9 °F 67% 30.08 in 10.0 mi ESE 10.4 mph - N/A   Clear
2:53 PM 87.1 °F 93.6 °F 72.0 °F 61% 30.07 in 10.0 mi ESE 12.7 mph - N/A   Clear
3:53 PM 86.0 °F 93.0 °F 73.0 °F 65% 30.05 in 10.0 mi ESE 11.5 mph - N/A   Clear
4:53 PM 86.0 °F 92.2 °F 72.0 °F 63% 30.04 in 10.0 mi East 11.5 mph - N/A   Clear
5:53 PM 84.9 °F 90.7 °F 72.0 °F 65% 30.04 in 10.0 mi ESE 11.5 mph - N/A   Clear
6:53 PM 84.0 °F 89.6 °F 72.0 °F 67% 30.05 in 10.0 mi ESE 12.7 mph - N/A   Clear
7:53 PM 82.0 °F 86.7 °F 72.0 °F 71% 30.05 in 10.0 mi East 11.5 mph - N/A   Clear
8:53 PM 82.0 °F 86.7 °F 72.0 °F 71% 30.07 in 10.0 mi ESE 12.7 mph - N/A   Clear
9:53 PM 81.0 °F 85.8 °F 73.0 °F 77% 30.09 in 10.0 mi ESE 10.4 mph - N/A   Clear
10:53 PM 81.0 °F 85.8 °F 73.0 °F 77% 30.10 in 10.0 mi ESE 11.5 mph - N/A   Clear
11:53 PM 81.0 °F 85.8 °F 73.0 °F 77% 30.10 in 10.0 mi East 11.5 mph - N/A   Partly Cloudy